YESP

Details ICAO YESP (EPR)
Name Esperance
Region Australia
Timezone Australia/Perth (UTC+8.0)
Plans Departing 7
Arriving 14
Stats Elevation 470 ft / 143 m (AMSL)
Location -33.683509° 121.823744°
Runways 2
Magnetic Variation 0.428° E
Sunrise 2018-05-25 22:46:11 UTC / 2018-05-26 06:46:11 Local
Sunset 2018-05-26 08:56:07 UTC / 2018-05-26 16:56:07 Local
Advertisement - Login to hide

Runways

ID Width Length Bearing (true) Bearing (mag) Surface Threshold Offset Overrun Length
03 115 ft / 35 m 4,210 ft / 1,283 m 28.73° 28.30° Dirt 0 ft / 0 m 0 ft / 0 m
11 98 ft / 30 m 4,914 ft / 1,498 m 111.10° 110.67° Asphalt 0 ft / 0 m 0 ft / 0 m
21 115 ft / 35 m 4,210 ft / 1,283 m 208.73° 208.30° Dirt 0 ft / 0 m 0 ft / 0 m
29 98 ft / 30 m 4,914 ft / 1,498 m 291.10° 290.67° Asphalt 0 ft / 0 m 0 ft / 0 m

Map

Weather


0- 5 10 15 20 25 30 35+ Temperature / ° C

Clouds and Precipitation
Forecast for 2018-05-25 18:00 UTC. Updated 2 hours ago

Ground ~20,000 ft ~40,000 ft Winds

METAR

YESP 251900Z AUTO 35017KT 9999 // NCD 13/08 Q1001

TAF

Not found

Frequencies

Unicom 121.30 MHz ACTIVATE LIGHTS ONLY MULT
Unicom 119.80 MHz MELBOURNE CENTRE MULT
Unicom 126.70 MHz ESPERANCE MULT
Tower 123.30 MHz ESPERANCE TWR
Warning: Do not use this data for real-world aviation or navigation. No guarantee of current accuracy is given.